Location: Unspecified
(51.6250°N, 0.8230°E)
Time: 05:34:11
(UTC+01:00)

Okean 3 - Pass Details

Date: 12 August 2020
Orbit: 577 x 600 km, 82.5° (Epoch: 21 September)

Event Time Altitude Azimuth Distance (km) Brightness Sun altitude
Rises 22:37:09 0° 352° (N) 2,853 8.1 -16.7°
Reaches altitude 10° 22:39:24 10° 356° (N) 1,949 7.0 -16.9°
Maximum altitude 22:43:39 58° 76° (ENE) 703 3.7 -17.3°
Enters shadow 22:45:10 36° 138° (SE) 954 4.0 -17.4°
